• MPC Preparation (Info)

  • MPEC 2002-K05 : 2001 FN185, 2001 FO185, 2001 KV76, 2001 KC77, 2001 KF77, 2001 KG77

    The following Minor Planet Electronic Circular may be linked-to from your own Web pages, but must not otherwise be redistributed electronically.

    A form allowing access to any MPEC is at the bottom of this page.


    Read MPEC 2002-K04 Read MPEC 2002-K06


    M.P.E.C. 2002-K05                                Issued 2002 May 16, 18:21 UT
    
         The Minor Planet Electronic Circulars contain information on unusual
             minor planets and routine data on comets.  They are published
       on behalf of Commission 20 of the International Astronomical Union by the
              Minor Planet Center, Smithsonian Astrophysical Observatory,
                              Cambridge, MA 02138, U.S.A.
    
                 Prepared using the Tamkin Foundation Computer Network
    
                                  MPC@CFA.HARVARD.EDU
              URL http://cfa-www.harvard.edu/iau/mpc.html  ISSN 1523-6714
    
          2001 FN185, 2001 FO185, 2001 KV76, 2001 KC77, 2001 KF77, 2001 KG77
    
                Revision to MPEC 2001-M34, 2001-M60, 2001-N03, 2001-N04
    
    Observations:
         K01FI5N  C2002 04 06.17214 13 11 57.51 -09 06 24.2          21.9 R      807
         K01FI5N  C2002 04 06.30697 13 11 56.85 -09 06 19.7                      807
         K01FI5N  C2002 04 07.19384 13 11 52.68 -09 05 49.5                      807
         K01FI5N  C2002 04 08.05922 13 11 48.58 -09 05 19.2          21.8 R      807
         K01FI5N  C2002 04 09.05013 13 11 43.90 -09 04 44.9                      807
         K01FI5N  C2002 04 09.15254 13 11 43.41 -09 04 41.3                      807
         K01FI5O  C2002 04 08.12135 13 16 23.74 -09 04 03.6          21.2 R      807
         K01FI5O  C2002 04 08.17047 13 16 23.52 -09 04 02.3                      807
         K01FI5O  C2002 04 09.21058 13 16 18.75 -09 03 31.1                      807
         K01K76V  C2002 04 06.22513 14 30 44.06 -14 48 21.2          22.8 R      807
         K01K76V  C2002 04 06.36489 14 30 43.37 -14 48 18.8                      807
         K01K76V  C2002 04 07.34579 14 30 38.91 -14 48 02.3                      807
         K01K77C  C2002 04 06.26872 15 58 08.59 -21 09 27.1          20.7 R      807
         K01K77C  C2002 04 06.40072 15 58 08.11 -21 09 26.6                      807
         K01K77C  C2002 04 07.27381 15 58 04.90 -21 09 22.1                      807
         K01K77F  C2002 04 07.40800 14 20 18.26 -15 50 07.4          22.0 R      807
         K01K77F  C2002 04 08.12888 14 20 12.65 -15 49 43.1                      807
         K01K77F  C2002 04 08.21516 14 20 11.98 -15 49 40.2                      807
         K01K77G  C2002 04 06.28355 16 10 09.54 -23 00 19.8          22.3 R      807
         K01K77G  C2002 04 07.28868 16 10 06.14 -23 00 08.7                      807
         K01K77G  C2002 04 07.38484 16 10 05.83 -23 00 07.5                      807
    
    Observer details:
    807 Cerro Tololo Observatory.  Observers M. W. Buie, A. B. Jordan, J. L.
        Elliot.  Measurers M. W. Buie, A. B. Jordan, J. L. Elliot, K. B. Clancy,
        R. L. Millis, L. H. Wasserman, E. Chaing, D. E. Trilling, S. D. Kern.
        4-m telescope + CCD.
    
    Orbital elements:
    2001 FN185
    Epoch 2002 May 6.0 TT = JDT 2452400.5                   MPC
    M   7.74155              (2000.0)            P               Q
    n   0.00355311     Peri.  347.56832     -0.97599427     +0.16109426
    a  42.5333899      Node   203.30225     -0.15421171     -0.98637829
    e   0.0713102      Incl.   21.74812     -0.15379835     -0.03326431
    P 277              H    7.2           G   0.15           U   7
    Residuals in seconds of arc
    K013Q  695  0.1-  0.0     K015T  695  0.3-  0.3+    K0247  807  0.1+  0.4-
    K013Q  695  0.0   0.0     K015T  695  0.4+  0.1-    K0248  807  0.3-  0.0
    K014T  695  0.2-  0.0     K0246  807  0.2+  0.1+    K0249  807  0.3-  0.1+
    K014T  695  0.2-  0.1-    K0246  807  0.0   0.0     K0249  807  0.3-  0.2+
    
    2001 FO185
    Epoch 2002 May 6.0 TT = JDT 2452400.5                   MPC
    M   7.49261              (2000.0)            P               Q
    n   0.00311850     Peri.  345.79727     -0.97788626     +0.19308642
    a  46.3986961      Node   205.76013     -0.16926850     -0.95636374
    e   0.1126959      Incl.   10.65416     -0.12282769     -0.21928529
    P 316              H    7.0           G   0.15           U   7
    Residuals in seconds of arc
    K013Q  695  0.1+  0.1+    K014T  695  0.2-  0.2+    K0248  807  0.0   0.2+
    K013Q  695  0.1-  0.1+    K015M  807  0.1+  0.4-    K0248  807  0.1+  0.0
    K014T  695  0.3-  0.1+    K015M  807  0.2-  0.2-    K0249  807  0.4-  0.1-
    
    2001 KV76
    Epoch 2002 May 6.0 TT = JDT 2452400.5                   MPC
    M 348.32039              (2000.0)            P               Q
    n   0.00214872     Peri.  206.34802     -0.41742092     +0.89291009
    a  59.4770414      Node    39.61462     -0.78001636     -0.25681153
    e   0.3633047      Incl.   15.34506     -0.46619123     -0.36980996
    P 459              H    7.8           G   0.15           U   7
    Residuals in seconds of arc
    K015O  807  0.0   0.1-    K016A  304  0.1-  0.1+    K0247  807  0.1+  0.3-
    K015O  807  0.1+  0.0     K0246  807  0.3+  0.1+
    K016A  304  0.2+  0.2-    K0246  807  0.3-  0.1+
    
    2001 KC77
    Epoch 2002 May 6.0 TT = JDT 2452400.5                   MPC
    M 356.61637              (2000.0)            P               Q
    n   0.00242888     Peri.  190.63456     -0.37096142     +0.90912562
    a  54.8107464      Node    57.83470     -0.83474982     -0.23706703
    e   0.3558790      Incl.   12.92991     -0.40691568     -0.34247603
    P 406              H    6.9           G   0.15           U   7
    Residuals in seconds of arc
    K015N  807  0.0   0.0     K016D  304  0.3-  0.1-    K0246  807  0.1-  0.1+
    K015N  807  0.1+  0.0     K016J  688  0.1-  0.3-    K0246  807  0.1+  0.1-
    K016D  304  0.3+  0.4-    K016J  688  0.3+  0.6+    K0247  807  0.1+  0.1-
    
    2001 KF77
    Epoch 2002 May 6.0 TT = JDT 2452400.5                   MPC
    M 318.83580              (2000.0)            P               Q
    n   0.00745218     Peri.  266.58888     +0.19332570     +0.98094783
    a  25.9585632      Node    14.60050     -0.86732493     +0.17998978
    e   0.2389856      Incl.    4.35572     -0.45866396     +0.07310974
    P 132.26           H    9.4           G   0.15           U   5
    Residuals in seconds of arc
    K015M  807  0.3-  0.1-    K0169  304  0.1-  0.2+    K0247  807  0.2-  0.3+
    K015N  807  0.0   0.2-    K0169  304  0.1+  0.2+    K0248  807  0.0   0.1-
    K015T  695  0.0   0.3+    K017J  309  0.2-  0.2-    K0248  807  0.3+  0.2-
    K015T  695  0.4+  0.1-    K017K  309  0.1+  0.2-
    
    2001 KG77
    Epoch 2002 May 6.0 TT = JDT 2452400.5                   MPC
    M 351.57221              (2000.0)            P               Q
    n   0.00203035     Peri.   17.72615     -0.04192895     +0.96680313
    a  61.7668691      Node   250.47010     -0.94601618     -0.11956960
    e   0.4532822      Incl.   15.51233     -0.32139595     +0.22582031
    P 485              H    7.8           G   0.15           U   6
    Residuals in seconds of arc
    K015N  807  0.2-  0.1-    K016D  304  0.1+  0.2-    K0246  807  0.0   0.4+
    K015N  807  0.1-  0.1-    K017O  568  0.1+  0.3+    K0247  807  0.2-  0.3-
    K016D  304  0.2+  0.0     K017P  568  0.2-  0.2+    K0247  807  0.2+  0.2-
    
    Ephemerides:
    2001 FN185               a,e,i = 42.53, 0.07, 22                 q = 39.500
    Date    TT    R. A. (2000) Decl.     Delta      r     Elong.  Phase     V
    2002 05 16    13 09.06   -08 44.4   38.707   39.533   144.3     0.9    23.3
    2002 05 26    13 08.51   -08 39.8   38.816   39.533   134.5     1.0    23.3
    2002 06 05    13 08.09   -08 36.0   38.945   39.533   124.8     1.2    23.3
    2002 06 15    13 07.79   -08 32.9   39.091   39.534   115.2     1.3    23.3
    2002 06 25    13 07.64   -08 30.6   39.249   39.534   105.6     1.4    23.3
    2002 07 05    13 07.64   -08 29.3   39.414   39.534    96.0     1.5    23.4
    2002 07 15    13 07.80   -08 28.9   39.583   39.534    86.5     1.5    23.4
    2002 07 25    13 08.10   -08 29.5   39.750   39.535    77.1     1.4    23.4
    2002 08 04    13 08.56   -08 31.0   39.910   39.535    67.6     1.4    23.4
    2002 08 14    13 09.15   -08 33.4   40.060   39.535    58.2     1.2    23.4
    2002 08 24    13 09.87   -08 36.5   40.195   39.536    48.7     1.1    23.4
    2002 09 03    13 10.69   -08 40.4   40.311   39.536    39.3     0.9    23.4
    
    2001 FO185               a,e,i = 46.40, 0.11, 11                 q = 41.170
    Date    TT    R. A. (2000) Decl.     Delta      r     Elong.  Phase     V
    2002 05 16    13 13.73   -08 45.9   40.391   41.227   145.4     0.8    23.2
    2002 05 26    13 13.19   -08 42.0   40.497   41.227   135.6     1.0    23.3
    2002 06 05    13 12.76   -08 38.8   40.625   41.228   125.9     1.1    23.3
    2002 06 15    13 12.45   -08 36.3   40.769   41.228   116.3     1.3    23.3
    2002 06 25    13 12.29   -08 34.6   40.926   41.229   106.7     1.4    23.3
    2002 07 05    13 12.27   -08 33.8   41.091   41.229    97.1     1.4    23.3
    2002 07 15    13 12.39   -08 33.8   41.260   41.230    87.6     1.4    23.3
    2002 07 25    13 12.66   -08 34.8   41.427   41.230    78.1     1.4    23.4
    2002 08 04    13 13.08   -08 36.6   41.589   41.231    68.7     1.3    23.4
    2002 08 14    13 13.63   -08 39.3   41.740   41.231    59.2     1.2    23.4
    2002 08 24    13 14.30   -08 42.7   41.877   41.232    49.8     1.1    23.3
    2002 09 03    13 15.08   -08 46.8   41.996   41.232    40.3     0.9    23.3
    2002 09 13    13 15.95   -08 51.5   42.093   41.233    30.9     0.7    23.3
    
